Regional Weather Roundup
Issued by NWS

Home | Current Version | Previous Version | Text Only | Print | Product List | Glossary On
Versions: 1 2 3 4 5 6 7 8 9 10 11 12 13 14 15 16 17 18 19 20 21 22 23 24 25 26 27
000
ASUS44 KBMX 231110
RWRAL

ALABAMA REGIONAL WEATHER ROUNDUP
NATIONAL WEATHER SERVICE BIRMINGHAM AL
600 AM CDT THU MAR 23 2017

NOTE: "FAIR" INDICATES FEW OR NO CLOUDS BELOW 12,000 FEET
WITH NO SIGNIFICANT WEATHER AND/OR OBSTRUCTIONS TO VISIBILITY.

THE REMARK "TC" DENOTES TEMPERATURE IN DEGREES CELSIUS.

ALZ001>011-014-016>018-020-231200-
NORTH ALABAMA

CITY           SKY/WX    TMP DP  RH WIND       PRES   REMARKS
MUSCLE SHOALS  PTCLDY    41  32  70 NE3       30.28S
HUNTSVILLE     PTCLDY    45  31  58 E6        30.27S
DECATUR        CLEAR     40  32  73 CALM      30.28S
HALEYVILLE     FAIR      41  31  67 VRB3      30.28R
GADSDEN        CLEAR     45  35  68 NE7       30.31R
$$

ALZ012-013-022-023-030>036-040>044-231200-
WEST CENTRAL ALABAMA

CITY           SKY/WX    TMP DP  RH WIND       PRES   REMARKS
TUSCALOOSA     CLEAR     48  35  60 CALM      30.26R
$$

ALZ015-024>027-033>036-040>044-231200-
CENTRAL ALABAMA

CITY           SKY/WX    TMP DP  RH WIND       PRES   REMARKS
BIRMINGHAM     CLEAR     51  28  41 NE6       30.29R
MONTGOMERY     CLEAR     54  32  43 NE5       30.24R
SHELBY CO ARPT CLEAR     50  32  50 E5        30.26R
MAXWELL AFB    CLEAR     53  35  49 N3        30.24R
GREENVILLE     FAIR      55  33  43 E6        30.22R
$$

ALZ019-021-028-029-037-038-045>048-231200-
EAST CENTRAL ALABAMA

CITY           SKY/WX    TMP DP  RH WIND       PRES   REMARKS
ANNISTON       PTCLDY    51  34  52 NE7       30.29R
ALEXANDER CITY PTCLDY    51  34  53 E6        30.27R
AUBURN         CLEAR     53  40  61 E8        30.28R
$$

ALZ051>064-231200-
SOUTHWEST ALABAMA

CITY           SKY/WX    TMP DP  RH WIND       PRES   REMARKS
MOBILE         PTCLDY    59  48  67 E6        30.19R
BROOKLEY FIELD CLEAR     65  49  56 NE7       30.20R
EVERGREEN      CLEAR     51  44  77 N3        30.22R
$$

ALZ049-050-065>069-231200-
SOUTHEAST ALABAMA

CITY           SKY/WX    TMP DP  RH WIND       PRES   REMARKS
DOTHAN         CLEAR     59  51  75 E6        30.26R
OZARK          CLEAR     55  44  67 NE7       30.22R
TROY           CLEAR     52  35  52 NE5       30.24R
EUFAULA        FAIR      56  47  71 NE5       30.25R
$$




USA.gov is the U.S. government's official web portal to all federal, state and local government web resources and services.